| time (UTC) | temp F | wind direction | speed MPH | gust MPH | rain 1hr in | rain 24hr in | rain mn in | humidity % | barometer mb |
| 20260510103349 | 51 | 187 | 5.0 | 8.0 | 0.00 | 0.00 | 0.00 | 97 | 1019.2 |
| 20260510102844 | 51 | 186 | 1.0 | 1.0 | 0.00 | 0.00 | 0.00 | 97 | 1019.1 |
| 20260510102335 | 51 | 185 | 4.0 | 5.0 | 0.00 | 0.00 | 0.00 | 97 | 1019.0 |
| 20260510101832 | 51 | 122 | 4.0 | 6.0 | 0.00 | 0.00 | 0.00 | 97 | 1018.8 |
| 20260510101331 | 51 | 188 | 4.0 | 5.0 | 0.00 | 0.00 | 0.00 | 98 | 1019.0 |
| 20260510100826 | 51 | 180 | 3.0 | 6.0 | 0.00 | 0.00 | 0.00 | 98 | 1018.9 |
| 20260510100324 | 51 | 173 | 2.0 | 3.0 | 0.00 | 0.00 | 0.00 | 98 | 1018.5 |
| 20260510095820 | 51 | 212 | 3.0 | 3.0 | 0.00 | 0.00 | 0.00 | 98 | 1018.7 |
| 20260510095315 | 51 | 202 | 5.0 | 7.0 | 0.00 | 0.00 | 0.00 | 98 | 1018.8 |
| 20260510094809 | 51 | 188 | 3.0 | 5.0 | 0.00 | 0.00 | 0.00 | 98 | 1018.7 |
| 20260510094304 | 51 | 186 | 4.0 | 6.0 | 0.00 | 0.00 | 0.00 | 98 | 1018.7 |
| 20260510093801 | 51 | 195 | 4.0 | 5.0 | 0.00 | 0.00 | 0.00 | 98 | 1018.5 |
| 20260510093257 | 51 | 184 | 3.0 | 5.0 | 0.00 | 0.00 | 0.00 | 98 | 1018.5 |
| 20260510092753 | 51 | 196 | 4.0 | 5.0 | 0.00 | 0.00 | 0.00 | 98 | 1018.2 |
| 20260510092249 | 51 | 184 | 3.0 | 5.0 | 0.00 | 0.00 | 0.00 | 98 | 1018.0 |
| 20260510091745 | 51 | 182 | 5.0 | 7.0 | 0.00 | 0.00 | 0.00 | 98 | 1018.0 |
| 20260510091243 | 51 | 191 | 4.0 | 5.0 | 0.00 | 0.00 | 0.00 | 98 | 1018.2 |
| 20260510090739 | 51 | 185 | 2.0 | 2.0 | 0.00 | 0.00 | 0.00 | 98 | 1018.1 |
| 20260510090236 | 51 | 180 | 4.0 | 6.0 | 0.00 | 0.00 | 0.00 | 98 | 1018.0 |
| 20260510085731 | 51 | 165 | 5.0 | 6.0 | 0.00 | 0.00 | 0.00 | 98 | 1018.2 |
| 20260510085226 | 51 | 191 | 3.0 | 3.0 | 0.00 | 0.00 | 0.00 | 98 | 1018.3 |
| 20260510084722 | 51 | 163 | 5.0 | 7.0 | 0.00 | 0.00 | 0.00 | 98 | 1018.1 |
| 20260510084219 | 51 | 186 | 3.0 | 5.0 | 0.00 | 0.00 | 0.00 | 98 | 1018.2 |
| 20260510083716 | 51 | 156 | 4.0 | 5.0 | 0.00 | 0.00 | 0.00 | 98 | 1018.5 |
| 20260510083213 | 51 | 191 | 3.0 | 3.0 | 0.00 | 0.00 | 0.00 | 97 | 1018.1 |
| 20260510082708 | 51 | 196 | 2.0 | 2.0 | 0.00 | 0.00 | 0.00 | 97 | 1018.1 |
| 20260510082205 | 51 | 204 | 2.0 | 2.0 | 0.00 | 0.00 | 0.00 | 97 | 1018.3 |
| 20260510081704 | 51 | 196 | 3.0 | 6.0 | 0.00 | 0.00 | 0.00 | 97 | 1018.4 |
| 20260510081201 | 51 | 199 | 3.0 | 3.0 | 0.00 | 0.00 | 0.00 | 97 | 1018.2 |
| 20260510080655 | 51 | 181 | 4.0 | 5.0 | 0.00 | 0.00 | 0.00 | 97 | 1018.2 |
| 20260510080152 | 51 | 197 | 6.0 | 7.0 | 0.00 | 0.00 | 0.00 | 97 | 1018.1 |
| 20260510075649 | 51 | 193 | 4.0 | 6.0 | 0.00 | 0.00 | 0.00 | 97 | 1017.7 |
| 20260510075146 | 51 | 187 | 3.0 | 5.0 | 0.00 | 0.00 | 0.00 | 97 | 1018.1 |
| 20260510074643 | 51 | 185 | 4.0 | 5.0 | 0.00 | 0.00 | 0.00 | 97 | 1018.4 |
| 20260510074139 | 51 | 161 | 1.0 | 2.0 | 0.00 | 0.00 | 0.00 | 96 | 1018.4 |
| 20260510073636 | 52 | 177 | 4.0 | 5.0 | 0.00 | 0.00 | 0.00 | 96 | 1018.5 |
| 20260510073132 | 52 | 203 | 3.0 | 5.0 | 0.00 | 0.00 | 0.00 | 96 | 1018.7 |
| 20260510072628 | 52 | 148 | 2.0 | 3.0 | 0.00 | 0.00 | 0.00 | 96 | 1018.8 |
| 20260510072125 | 52 | 189 | 3.0 | 5.0 | 0.00 | 0.00 | 0.00 | 96 | 1018.7 |
| 20260510071620 | 52 | 189 | 5.0 | 6.0 | 0.00 | 0.00 | 0.00 | 95 | 1019.0 |
| 20260510071118 | 52 | 177 | 1.0 | 2.0 | 0.00 | 0.00 | 0.00 | 95 | 1019.4 |
| 20260510070615 | 52 | 171 | 0.0 | 1.0 | 0.00 | 0.00 | 0.00 | 95 | 1019.1 |
| 20260510070113 | 52 | 182 | 2.0 | 3.0 | 0.00 | 0.00 | 0.00 | 95 | 1019.0 |
| 20260510065608 | 52 | 128 | 2.0 | 3.0 | 0.00 | 0.00 | 0.00 | 95 | 1019.1 |
| 20260510065104 | 52 | 192 | 5.0 | 6.0 | 0.00 | 0.00 | 0.00 | 95 | 1018.9 |
| 20260510064555 | 52 | 179 | 6.0 | 8.0 | 0.00 | 0.00 | 0.00 | 95 | 1018.9 |
| 20260510064052 | 52 | 170 | 3.0 | 3.0 | 0.00 | 0.00 | 0.00 | 95 | 1018.9 |
| 20260510063549 | 52 | 205 | 4.0 | 5.0 | 0.00 | 0.00 | 0.00 | 95 | 1018.7 |
| 20260510063046 | 52 | 181 | 3.0 | 5.0 | 0.00 | 0.00 | 0.00 | 95 | 1018.8 |
| 20260510062542 | 52 | 189 | 5.0 | 7.0 | 0.00 | 0.00 | 0.00 | 95 | 1018.8 |
| 20260510062037 | 52 | 190 | 2.0 | 2.0 | 0.00 | 0.00 | 0.00 | 95 | 1018.7 |
| 20260510061534 | 52 | 178 | 5.0 | 6.0 | 0.00 | 0.00 | 0.00 | 95 | 1018.6 |
| 20260510061031 | 52 | 188 | 3.0 | 5.0 | 0.00 | 0.00 | 0.00 | 95 | 1018.5 |
| 20260510060527 | 52 | 202 | 4.0 | 6.0 | 0.00 | 0.00 | 0.00 | 95 | 1018.5 |
| 20260510060023 | 52 | 189 | 3.0 | 5.0 | 0.00 | 0.00 | 0.00 | 95 | 1018.1 |
| 20260510055520 | 52 | 191 | 3.0 | 5.0 | 0.00 | 0.00 | 0.00 | 95 | 1018.3 |
| 20260510055018 | 52 | 166 | 2.0 | 3.0 | 0.00 | 0.00 | 0.00 | 95 | 1018.2 |
| 20260510054513 | 52 | 187 | 5.0 | 6.0 | 0.00 | 0.00 | 0.00 | 95 | 1018.2 |
| 20260510054009 | 52 | 176 | 6.0 | 7.0 | 0.00 | 0.00 | 0.00 | 94 | 1018.2 |
| 20260510053503 | 52 | 150 | 6.0 | 9.0 | 0.00 | 0.00 | 0.00 | 95 | 1018.4 |
| 20260510053001 | 52 | 187 | 5.0 | 6.0 | 0.00 | 0.00 | 0.00 | 95 | 1018.5 |
| 20260510052456 | 52 | 190 | 4.0 | 5.0 | 0.00 | 0.00 | 0.00 | 95 | 1018.6 |
| 20260510051953 | 52 | 197 | 3.0 | 5.0 | 0.00 | 0.00 | 0.00 | 95 | 1018.3 |
| 20260510051448 | 52 | 201 | 7.0 | 8.0 | 0.00 | 0.00 | 0.00 | 95 | 1018.1 |
| 20260510050944 | 52 | 168 | 8.0 | 11.0 | 0.00 | 0.00 | 0.00 | 94 | 1018.1 |
| 20260510050442 | 52 | 171 | 3.0 | 5.0 | 0.00 | 0.00 | 0.00 | 94 | 1018.1 |
| 20260510045939 | 52 | 195 | 7.0 | 8.0 | 0.00 | 0.00 | 0.00 | 94 | 1018.3 |
| 20260510045436 | 52 | 157 | 3.0 | 3.0 | 0.00 | 0.00 | 0.00 | 94 | 1018.5 |
| 20260510044933 | 52 | 182 | 5.0 | 6.0 | 0.00 | 0.00 | 0.00 | 93 | 1018.3 |
| 20260510044430 | 52 | 179 | 3.0 | 3.0 | 0.00 | 0.00 | 0.00 | 93 | 1018.2 |
| 20260510043927 | 53 | 173 | 3.0 | 3.0 | 0.00 | 0.00 | 0.00 | 93 | 1018.5 |
| 20260510043422 | 53 | 162 | 5.0 | 7.0 | 0.00 | 0.00 | 0.00 | 93 | 1018.7 |
| 20260510042921 | 53 | 204 | 3.0 | 3.0 | 0.00 | 0.00 | 0.00 | 92 | 1018.5 |
| 20260510042416 | 53 | 192 | 4.0 | 6.0 | 0.00 | 0.00 | 0.00 | 92 | 1018.5 |
| 20260510041912 | 53 | 189 | 2.0 | 2.0 | 0.00 | 0.00 | 0.00 | 92 | 1018.4 |
| 20260510041410 | 53 | 192 | 5.0 | 7.0 | 0.00 | 0.00 | 0.00 | 92 | 1018.5 |
| 20260510040908 | 53 | 189 | 5.0 | 7.0 | 0.00 | 0.00 | 0.00 | 92 | 1018.5 |
| 20260510040404 | 53 | 195 | 2.0 | 3.0 | 0.00 | 0.00 | 0.00 | 92 | 1018.5 |
| 20260510035900 | 53 | 180 | 3.0 | 5.0 | 0.00 | 0.59 | 0.59 | 92 | 1018.4 |
| 20260510035356 | 53 | 203 | 3.0 | 5.0 | 0.00 | 0.59 | 0.59 | 92 | 1018.3 |
| 20260510034851 | 53 | 155 | 4.0 | 7.0 | 0.00 | 0.59 | 0.59 | 93 | 1018.1 |
| 20260510034350 | 52 | 172 | 4.0 | 6.0 | 0.00 | 0.59 | 0.59 | 93 | 1018.5 |
| 20260510033846 | 52 | 178 | 3.0 | 3.0 | 0.00 | 0.59 | 0.59 | 93 | 1018.3 |
| 20260510033342 | 52 | 174 | 7.0 | 9.0 | 0.00 | 0.59 | 0.59 | 93 | 1018.2 |
| 20260510032839 | 52 | 184 | 3.0 | 5.0 | 0.00 | 0.59 | 0.59 | 93 | 1018.0 |
| 20260510032336 | 52 | 176 | 2.0 | 3.0 | 0.00 | 0.59 | 0.59 | 93 | 1018.1 |
| 20260510031831 | 52 | 140 | 3.0 | 3.0 | 0.00 | 0.59 | 0.59 | 94 | 1018.3 |
| 20260510031326 | 52 | 203 | 2.0 | 2.0 | 0.00 | 0.59 | 0.59 | 94 | 1018.4 |
| 20260510030821 | 52 | 154 | 3.0 | 5.0 | 0.00 | 0.59 | 0.59 | 93 | 1018.3 |
| 20260510030318 | 52 | 159 | 2.0 | 2.0 | 0.00 | 0.59 | 0.59 | 93 | 1018.2 |
| 20260510025815 | 52 | 177 | 2.0 | 3.0 | 0.00 | 0.59 | 0.59 | 93 | 1018.2 |
| 20260510025312 | 52 | 184 | 5.0 | 8.0 | 0.00 | 0.59 | 0.59 | 93 | 1018.4 |
| 20260510024809 | 52 | 203 | 3.0 | 5.0 | 0.00 | 0.59 | 0.59 | 93 | 1018.6 |
| 20260510024306 | 52 | 177 | 2.0 | 3.0 | 0.00 | 0.59 | 0.59 | 93 | 1018.4 |
| 20260510023802 | 52 | 177 | 5.0 | 6.0 | 0.00 | 0.59 | 0.59 | 94 | 1018.2 |
| 20260510023259 | 52 | 166 | 3.0 | 3.0 | 0.00 | 0.59 | 0.59 | 94 | 1018.8 |
| 20260510022755 | 52 | 170 | 2.0 | 5.0 | 0.00 | 0.59 | 0.59 | 94 | 1018.5 |
| 20260510022250 | 52 | 165 | 4.0 | 6.0 | 0.00 | 0.59 | 0.59 | 94 | 1018.4 |
| 20260510021749 | 52 | 180 | 3.0 | 5.0 | 0.00 | 0.59 | 0.59 | 94 | 1018.4 |
| 20260510021247 | 52 | 162 | 4.0 | 6.0 | 0.00 | 0.59 | 0.59 | 95 | 1018.5 |
| 20260510020742 | 52 | 176 | 3.0 | 3.0 | 0.00 | 0.59 | 0.59 | 95 | 1018.5 |
| 20260510020237 | 52 | 209 | 2.0 | 2.0 | 0.00 | 0.59 | 0.59 | 95 | 1018.6 |
| 20260510015734 | 52 | 169 | 5.0 | 7.0 | 0.00 | 0.59 | 0.59 | 95 | 1018.6 |
| 20260510015230 | 52 | 164 | 5.0 | 7.0 | 0.00 | 0.59 | 0.59 | 95 | 1018.3 |
| 20260510014724 | 52 | 165 | 3.0 | 3.0 | 0.00 | 0.59 | 0.59 | 95 | 1018.4 |
| 20260510014222 | 52 | 167 | 2.0 | 3.0 | 0.00 | 0.59 | 0.59 | 95 | 1018.3 |
| 20260510013718 | 52 | 183 | 2.0 | 2.0 | 0.00 | 0.59 | 0.59 | 95 | 1018.4 |
| 20260510013213 | 52 | 198 | 3.0 | 3.0 | 0.00 | 0.59 | 0.59 | 96 | 1018.3 |
| 20260510012708 | 52 | 192 | 3.0 | 3.0 | 0.00 | 0.59 | 0.59 | 96 | 1018.5 |
| 20260510012203 | 52 | 185 | 1.0 | 2.0 | 0.00 | 0.59 | 0.59 | 96 | 1018.4 |
| 20260510011658 | 52 | 205 | 3.0 | 5.0 | 0.00 | 0.59 | 0.59 | 96 | 1018.5 |
| 20260510011154 | 52 | 192 | 5.0 | 6.0 | 0.00 | 0.59 | 0.59 | 96 | 1018.8 |
| 20260510010651 | 52 | 194 | 2.0 | 2.0 | 0.00 | 0.59 | 0.59 | 96 | 1018.3 |
| 20260510010148 | 52 | 198 | 3.0 | 3.0 | 0.00 | 0.59 | 0.59 | 95 | 1018.4 |
| 20260510005644 | 52 | 195 | 1.0 | 1.0 | 0.00 | 0.59 | 0.59 | 95 | 1018.2 |
| 20260510005141 | 52 | 194 | 3.0 | 5.0 | 0.00 | 0.59 | 0.59 | 95 | 1018.3 |
| 20260510004639 | 53 | 202 | 3.0 | 5.0 | 0.00 | 0.59 | 0.59 | 95 | 1018.4 |
| 20260510004137 | 53 | 147 | 3.0 | 3.0 | 0.00 | 0.59 | 0.59 | 95 | 1018.4 |
| 20260510003634 | 53 | 193 | 3.0 | 3.0 | 0.00 | 0.59 | 0.59 | 95 | 1018.6 |
| 20260510003129 | 53 | 218 | 4.0 | 5.0 | 0.00 | 0.59 | 0.59 | 95 | 1018.3 |
| 20260510002623 | 53 | 133 | 3.0 | 3.0 | 0.00 | 0.59 | 0.59 | 95 | 1018.3 |
| 20260510002121 | 53 | 177 | 2.0 | 2.0 | 0.00 | 0.59 | 0.59 | 95 | 1018.0 |
| 20260510001617 | 53 | 187 | 3.0 | 3.0 | 0.00 | 0.59 | 0.59 | 95 | 1017.9 |
| 20260510001117 | 53 | 182 | 2.0 | 2.0 | 0.00 | 0.59 | 0.59 | 95 | 1017.8 |
| 20260510000616 | 53 | 184 | 2.0 | 2.0 | 0.00 | 0.59 | 0.59 | 95 | 1017.7 |
| 20260510000114 | 53 | 183 | 1.0 | 2.0 | 0.00 | 0.59 | 0.59 | 95 | 1017.6 |
| 20260509235610 | 53 | 194 | 1.0 | 2.0 | 0.00 | 0.59 | 0.59 | 95 | 1017.5 |
| 20260509235107 | 53 | 178 | 3.0 | 5.0 | 0.00 | 0.59 | 0.59 | 95 | 1017.6 |
| 20260509234603 | 53 | 201 | 3.0 | 5.0 | 0.00 | 0.59 | 0.59 | 94 | 1017.6 |
| 20260509234101 | 53 | 195 | 2.0 | 2.0 | 0.00 | 0.59 | 0.59 | 94 | 1017.3 |
| 20260509233558 | 53 | 198 | 5.0 | 8.0 | 0.00 | 0.59 | 0.59 | 93 | 1017.5 |
| 20260509233055 | 53 | 187 | 4.0 | 6.0 | 0.00 | 0.59 | 0.59 | 93 | 1017.2 |
| 20260509232552 | 54 | 156 | 2.0 | 2.0 | 0.00 | 0.59 | 0.59 | 92 | 1017.2 |
| 20260509232049 | 54 | 192 | 5.0 | 7.0 | 0.00 | 0.59 | 0.59 | 92 | 1017.1 |
| 20260509231545 | 54 | 200 | 8.0 | 10.0 | 0.00 | 0.59 | 0.59 | 91 | 1017.0 |
| 20260509231043 | 54 | 194 | 3.0 | 3.0 | 0.00 | 0.59 | 0.59 | 92 | 1016.9 |
| 20260509230539 | 54 | 177 | 4.0 | 6.0 | 0.00 | 0.59 | 0.59 | 92 | 1017.0 |
| 20260509230037 | 54 | 168 | 5.0 | 7.0 | 0.00 | 0.59 | 0.59 | 92 | 1017.2 |
| 20260509225532 | 54 | 195 | 5.0 | 6.0 | 0.00 | 0.59 | 0.59 | 92 | 1017.1 |
| 20260509225028 | 54 | 108 | 5.0 | 8.0 | 0.00 | 0.59 | 0.59 | 92 | 1017.1 |
| 20260509224524 | 54 | 166 | 5.0 | 7.0 | 0.00 | 0.59 | 0.59 | 92 | 1017.0 |
| 20260509224020 | 55 | 155 | 6.0 | 7.0 | 0.00 | 0.59 | 0.59 | 92 | 1017.3 |
| 20260509223517 | 54 | 159 | 3.0 | 5.0 | 0.00 | 0.59 | 0.59 | 92 | 1017.2 |
| 20260509223015 | 54 | 203 | 7.0 | 8.0 | 0.00 | 0.59 | 0.59 | 92 | 1017.4 |
| 20260509222511 | 55 | 170 | 5.0 | 6.0 | 0.00 | 0.59 | 0.59 | 92 | 1017.3 |
| 20260509222007 | 54 | 173 | 8.0 | 10.0 | 0.00 | 0.59 | 0.59 | 93 | 1017.3 |
| 20260509221503 | 54 | 195 | 3.0 | 3.0 | 0.00 | 0.59 | 0.59 | 94 | 1017.4 |
| 20260509220959 | 54 | 182 | 7.0 | 8.0 | 0.00 | 0.59 | 0.59 | 94 | 1017.2 |
| 20260509220455 | 54 | 175 | 5.0 | 6.0 | 0.00 | 0.59 | 0.59 | 94 | 1017.2 |
| 20260509215951 | 54 | 176 | 9.0 | 11.0 | 0.00 | 0.59 | 0.59 | 94 | 1017.5 |
| 20260509215446 | 54 | 188 | 8.0 | 9.0 | 0.00 | 0.59 | 0.59 | 95 | 1017.6 |
| 20260509214945 | 54 | 185 | 3.0 | 5.0 | 0.00 | 0.59 | 0.59 | 95 | 1017.6 |
| 20260509214442 | 53 | 129 | 4.0 | 6.0 | 0.00 | 0.59 | 0.59 | 96 | 1017.5 |
| 20260509213938 | 53 | 179 | 6.0 | 9.0 | 0.00 | 0.59 | 0.59 | 96 | 1017.5 |
| 20260509213434 | 53 | 193 | 3.0 | 5.0 | 0.00 | 0.59 | 0.59 | 97 | 1017.5 |
| 20260509212932 | 53 | 198 | 6.0 | 8.0 | 0.00 | 0.59 | 0.59 | 98 | 1017.7 |
| 20260509212429 | 53 | 122 | 3.0 | 3.0 | 0.00 | 0.59 | 0.59 | 98 | 1017.6 |
| 20260509211925 | 53 | 187 | 6.0 | 7.0 | 0.00 | 0.59 | 0.59 | 98 | 1017.5 |
| 20260509211421 | 53 | 217 | 7.0 | 9.0 | 0.00 | 0.59 | 0.59 | 98 | 1017.6 |
| 20260509210917 | 53 | 126 | 4.0 | 5.0 | 0.00 | 0.59 | 0.59 | 98 | 1017.9 |
| 20260509210415 | 53 | 202 | 3.0 | 5.0 | 0.00 | 0.59 | 0.59 | 99 | 1017.7 |
| 20260509205910 | 53 | 189 | 6.0 | 11.0 | 0.00 | 0.59 | 0.59 | 99 | 1017.8 |
| 20260509205409 | 52 | 184 | 3.0 | 3.0 | 0.00 | 0.59 | 0.59 | 99 | 1017.8 |
| 20260509204906 | 53 | 168 | 2.0 | 2.0 | 0.00 | 0.59 | 0.59 | 99 | 1017.7 |
| 20260509204402 | 53 | 203 | 4.0 | 6.0 | 0.00 | 0.59 | 0.59 | 99 | 1017.8 |
| 20260509203859 | 52 | 189 | 3.0 | 3.0 | 0.00 | 0.59 | 0.59 | 99 | 1017.7 |
| 20260509203355 | 52 | 176 | 5.0 | 6.0 | 0.00 | 0.59 | 0.59 | 99 | 1018.0 |
| 20260509202852 | 52 | 180 | 3.0 | 3.0 | 0.00 | 0.59 | 0.59 | 99 | 1018.1 |
| 20260509202348 | 51 | 198 | 5.0 | 7.0 | 0.00 | 0.59 | 0.59 | 99 | 1018.3 |
| 20260509201843 | 51 | 208 | 7.0 | 8.0 | 0.00 | 0.59 | 0.59 | 99 | 1018.0 |
| 20260509201339 | 51 | 126 | 3.0 | 3.0 | 0.00 | 0.59 | 0.59 | 99 | 1018.2 |
| 20260509200836 | 51 | 169 | 5.0 | 6.0 | 0.00 | 0.59 | 0.59 | 99 | 1018.3 |
| 20260509200325 | 51 | 181 | 3.0 | 3.0 | 0.00 | 0.59 | 0.59 | 99 | 1018.4 |
| 20260509195822 | 51 | 183 | 5.0 | 7.0 | 0.00 | 0.59 | 0.59 | 99 | 1018.4 |
| 20260509195317 | 51 | 191 | 3.0 | 5.0 | 0.00 | 0.59 | 0.59 | 99 | 1018.6 |
| 20260509194816 | 51 | 194 | 7.0 | 8.0 | 0.00 | 0.59 | 0.59 | 99 | 1018.6 |
| 20260509194313 | 51 | 184 | 2.0 | 3.0 | 0.00 | 0.59 | 0.59 | 99 | 1018.5 |
| 20260509193809 | 51 | 192 | 2.0 | 2.0 | 0.00 | 0.59 | 0.59 | 99 | 1018.5 |
| 20260509193309 | 51 | 168 | 5.0 | 7.0 | 0.07 | 0.59 | 0.59 | 99 | 1018.7 |
| 20260509192806 | 51 | 198 | 5.0 | 8.0 | 0.07 | 0.59 | 0.59 | 99 | 1018.7 |
| 20260509192305 | 50 | 180 | 4.0 | 6.0 | 0.00 | 0.58 | 0.58 | 99 | 1018.7 |
| 20260509191756 | 50 | 161 | 2.0 | 3.0 | 0.00 | 0.58 | 0.58 | 99 | 1018.7 |
| 20260509191253 | 50 | 170 | 4.0 | 7.0 | 0.05 | 0.58 | 0.58 | 99 | 1018.7 |
| 20260509190749 | 50 | 187 | 2.0 | 3.0 | 0.05 | 0.58 | 0.58 | 99 | 1018.7 |
| 20260509190247 | 50 | 203 | 5.0 | 6.0 | 0.05 | 0.58 | 0.58 | 99 | 1019.1 |
| 20260509185744 | 50 | 165 | 4.0 | 6.0 | 0.00 | 0.57 | 0.57 | 99 | 1019.2 |
| 20260509185240 | 50 | 170 | 4.0 | 5.0 | 0.07 | 0.57 | 0.57 | 99 | 1019.1 |
| 20260509184738 | 50 | 178 | 3.0 | 3.0 | 0.07 | 0.57 | 0.57 | 99 | 1019.2 |
| 20260509184235 | 50 | 196 | 6.0 | 7.0 | 0.05 | 0.56 | 0.56 | 99 | 1019.1 |
| 20260509183731 | 50 | 99 | 2.0 | 2.0 | 0.05 | 0.56 | 0.56 | 99 | 1019.1 |
| 20260509183226 | 50 | 175 | 4.0 | 6.0 | 0.07 | 0.55 | 0.55 | 99 | 1018.8 |
| 20260509182722 | 50 | 209 | 4.0 | 5.0 | 0.12 | 0.55 | 0.55 | 99 | 1018.8 |
| 20260509182220 | 49 | 176 | 5.0 | 6.0 | 0.05 | 0.54 | 0.54 | 99 | 1018.8 |
| 20260509181717 | 49 | 196 | 4.0 | 5.0 | 0.00 | 0.53 | 0.53 | 99 | 1019.0 |
| 20260509181214 | 49 | 172 | 4.0 | 7.0 | 0.07 | 0.53 | 0.53 | 99 | 1019.2 |
| 20260509180711 | 49 | 163 | 3.0 | 3.0 | 0.07 | 0.53 | 0.53 | 99 | 1019.1 |
| 20260509180207 | 49 | 197 | 2.0 | 3.0 | 0.05 | 0.52 | 0.52 | 99 | 1019.0 |
| 20260509175704 | 49 | 183 | 4.0 | 6.0 | 0.05 | 0.52 | 0.52 | 99 | 1018.9 |
| 20260509175201 | 49 | 191 | 4.0 | 5.0 | 0.07 | 0.51 | 0.51 | 99 | 1019.1 |
| 20260509174656 | 49 | 185 | 5.0 | 7.0 | 0.14 | 0.51 | 0.51 | 99 | 1019.3 |
| 20260509174151 | 49 | 206 | 6.0 | 7.0 | 0.12 | 0.50 | 0.50 | 99 | 1019.2 |
| 20260509173648 | 48 | 187 | 4.0 | 6.0 | 0.12 | 0.49 | 0.49 | 99 | 1019.5 |
| 20260509173143 | 48 | 179 | 2.0 | 2.0 | 0.07 | 0.48 | 0.48 | 99 | 1019.2 |
| 20260509172640 | 48 | 205 | 6.0 | 7.0 | 0.12 | 0.48 | 0.48 | 99 | 1019.2 |
| 20260509172136 | 48 | 181 | 3.0 | 3.0 | 0.05 | 0.47 | 0.47 | 99 | 1019.4 |
| 20260509171632 | 48 | 172 | 3.0 | 3.0 | 0.07 | 0.46 | 0.46 | 99 | 1019.2 |
| 20260509171128 | 48 | 181 | 2.0 | 2.0 | 0.07 | 0.46 | 0.46 | 99 | 1019.0 |
| 20260509170625 | 48 | 198 | 3.0 | 5.0 | 0.12 | 0.46 | 0.46 | 99 | 1019.3 |
| 20260509170121 | 48 | 177 | 4.0 | 5.0 | 0.05 | 0.45 | 0.45 | 99 | 1019.4 |
| 20260509165619 | 48 | 183 | 1.0 | 1.0 | 0.07 | 0.44 | 0.44 | 99 | 1019.5 |
| 20260509165115 | 48 | 181 | 2.0 | 3.0 | 0.07 | 0.44 | 0.44 | 99 | 1019.2 |
| 20260509164612 | 48 | 168 | 1.0 | 2.0 | 0.07 | 0.44 | 0.44 | 99 | 1019.5 |
| 20260509164107 | 48 | 184 | 4.0 | 5.0 | 0.00 | 0.43 | 0.43 | 99 | 1019.4 |
| 20260509163606 | 48 | 153 | 5.0 | 7.0 | 0.05 | 0.43 | 0.43 | 99 | 1019.6 |
| 20260509163101 | 48 | 182 | 1.0 | 2.0 | 0.05 | 0.43 | 0.43 | 99 | 1019.7 |
| 20260509162558 | 48 | 184 | 3.0 | 5.0 | 0.07 | 0.42 | 0.42 | 99 | 1020.0 |
| 20260509162054 | 48 | 184 | 2.0 | 2.0 | 0.12 | 0.42 | 0.42 | 99 | 1020.0 |
| 20260509161550 | 48 | 187 | 3.0 | 3.0 | 0.12 | 0.41 | 0.41 | 99 | 1020.2 |
| 20260509161045 | 48 | 196 | 4.0 | 5.0 | 0.07 | 0.40 | 0.40 | 99 | 1020.0 |
| 20260509160541 | 47 | 173 | 3.0 | 3.0 | 0.12 | 0.40 | 0.40 | 99 | 1020.3 |
| 20260509160037 | 47 | 182 | 2.0 | 3.0 | 0.05 | 0.39 | 0.39 | 99 | 1020.3 |
| 20260509155533 | 48 | 184 | 1.0 | 1.0 | 0.07 | 0.38 | 0.38 | 99 | 1020.2 |
| 20260509155029 | 47 | 196 | 1.0 | 2.0 | 0.07 | 0.38 | 0.38 | 99 | 1020.2 |
| 20260509154526 | 47 | 204 | 2.0 | 2.0 | 0.14 | 0.38 | 0.38 | 99 | 1020.5 |
| 20260509154023 | 47 | 187 | 2.0 | 2.0 | 0.12 | 0.37 | 0.37 | 99 | 1020.6 |
| 20260509153520 | 47 | 182 | 2.0 | 2.0 | 0.12 | 0.36 | 0.36 | 99 | 1020.5 |
| 20260509153017 | 47 | 199 | 0.0 | 0.0 | 0.07 | 0.35 | 0.35 | 99 | 1021.0 |
| 20260509152513 | 46 | 195 | 0.0 | 1.0 | 0.12 | 0.35 | 0.35 | 99 | 1021.0 |
| 20260509152009 | 46 | 205 | 0.0 | 0.0 | 0.12 | 0.34 | 0.34 | 99 | 1021.2 |
| 20260509151506 | 46 | 201 | 0.0 | 1.0 | 0.12 | 0.33 | 0.33 | 99 | 1021.2 |
| 20260509151004 | 46 | 205 | 0.0 | 0.0 | 0.12 | 0.32 | 0.32 | 99 | 1021.1 |
| 20260509150501 | 46 | 201 | 0.0 | 0.0 | 0.12 | 0.31 | 0.31 | 99 | 1021.2 |
| 20260509150000 | 46 | 210 | 0.0 | 0.0 | 0.17 | 0.30 | 0.30 | 99 | 1021.3 |
| 20260509145455 | 45 | 177 | 0.0 | 0.0 | 0.19 | 0.29 | 0.29 | 99 | 1020.9 |
| 20260509144950 | 45 | 231 | 0.0 | 0.0 | 0.19 | 0.27 | 0.27 | 99 | 1021.2 |
| 20260509144447 | 45 | 214 | 0.0 | 0.0 | 0.19 | 0.26 | 0.26 | 99 | 1021.1 |
| 20260509143944 | 45 | 220 | 0.0 | 0.0 | 0.19 | 0.25 | 0.25 | 99 | 1021.0 |
| 20260509143441 | 44 | 214 | 0.0 | 0.0 | 0.12 | 0.23 | 0.23 | 99 | 1021.0 |
| 20260509142938 | 45 | 256 | 0.0 | 0.0 | 0.12 | 0.22 | 0.22 | 99 | 1020.9 |
| 20260509142434 | 45 | 228 | 0.0 | 0.0 | 0.12 | 0.21 | 0.21 | 99 | 1021.1 |
| 20260509141930 | 45 | 153 | 0.0 | 0.0 | 0.12 | 0.20 | 0.20 | 99 | 1020.7 |
| 20260509141427 | 44 | 127 | 0.0 | 1.0 | 0.12 | 0.19 | 0.19 | 99 | 1020.9 |
| 20260509140924 | 44 | 358 | 2.0 | 2.0 | 0.19 | 0.18 | 0.18 | 99 | 1020.9 |
| 20260509140420 | 44 | 310 | 1.0 | 2.0 | 0.17 | 0.17 | 0.17 | 99 | 1021.0 |
| 20260509135918 | 45 | 300 | 0.0 | 0.0 | 0.19 | 0.16 | 0.16 | 99 | 1021.1 |
| 20260509135416 | 46 | 248 | 0.0 | 0.0 | 0.12 | 0.15 | 0.15 | 99 | 1020.9 |
| 20260509134913 | 47 | 220 | 0.0 | 0.0 | 0.12 | 0.13 | 0.13 | 99 | 1020.6 |
| 20260509134410 | 46 | 194 | 0.0 | 0.0 | 0.12 | 0.13 | 0.13 | 99 | 1020.4 |
| 20260509133907 | 47 | 208 | 0.0 | 0.0 | 0.12 | 0.11 | 0.11 | 99 | 1020.5 |
| 20260509133404 | 47 | 192 | 0.0 | 0.0 | 0.12 | 0.11 | 0.11 | 99 | 1020.6 |
| 20260509132902 | 47 | 180 | 0.0 | 0.0 | 0.12 | 0.10 | 0.10 | 99 | 1020.7 |
| 20260509132400 | 47 | 188 | 0.0 | 0.0 | 0.07 | 0.09 | 0.09 | 99 | 1020.6 |
| 20260509131857 | 47 | 201 | 0.0 | 0.0 | 0.00 | 0.08 | 0.08 | 99 | 1020.9 |
| 20260509131354 | 47 | 193 | 1.0 | 2.0 | 0.05 | 0.08 | 0.08 | 99 | 1020.6 |
| 20260509130850 | 47 | 187 | 2.0 | 2.0 | 0.05 | 0.08 | 0.08 | 99 | 1020.5 |
| 20260509130346 | 46 | 179 | 3.0 | 5.0 | 0.12 | 0.08 | 0.08 | 98 | 1020.7 |
| 20260509125843 | 46 | 196 | 2.0 | 3.0 | 0.12 | 0.07 | 0.07 | 98 | 1021.0 |
| 20260509125339 | 45 | 203 | 0.0 | 0.0 | 0.05 | 0.06 | 0.06 | 97 | 1021.1 |
| 20260509124835 | 44 | 212 | 0.0 | 0.0 | 0.12 | 0.06 | 0.06 | 97 | 1021.2 |
| 20260509124332 | 44 | 232 | 0.0 | 0.0 | 0.12 | 0.05 | 0.05 | 97 | 1021.3 |
| 20260509123830 | 45 | 220 | 1.0 | 1.0 | 0.12 | 0.04 | 0.04 | 96 | 1021.2 |
| 20260509123328 | 44 | 211 | 0.0 | 0.0 | 0.07 | 0.03 | 0.03 | 96 | 1021.1 |
| 20260509122823 | 44 | 257 | 1.0 | 1.0 | 0.05 | 0.02 | 0.02 | 95 | 1021.2 |
| 20260509122320 | 44 | 338 | 2.0 | 2.0 | 0.05 | 0.02 | 0.02 | 94 | 1021.3 |
| 20260509121817 | 46 | 316 | 1.0 | 2.0 | 0.07 | 0.01 | 0.01 | 92 | 1021.2 |
| 20260509121314 | 47 | 192 | 0.0 | 1.0 | 0.07 | 0.01 | 0.01 | 92 | 1021.2 |
| 20260509120813 | 47 | 196 | 0.0 | 0.0 | 0.00 | 0.00 | 0.00 | 92 | 1021.2 |
| 20260509120310 | 47 | 191 | 1.0 | 1.0 | 0.00 | 0.00 | 0.00 | 91 | 1021.0 |
| 20260509115808 | 47 | 190 | 2.0 | 2.0 | 0.00 | 0.00 | 0.00 | 91 | 1021.0 |
| 20260509115307 | 47 | 187 | 0.0 | 1.0 | 0.00 | 0.00 | 0.00 | 90 | 1021.1 |
| 20260509114803 | 46 | 186 | 0.0 | 1.0 | 0.00 | 0.00 | 0.00 | 89 | 1021.0 |
| 20260509114302 | 46 | 185 | 0.0 | 0.0 | 0.00 | 0.00 | 0.00 | 89 | 1021.0 |
| 20260509113800 | 46 | 211 | 2.0 | 3.0 | 0.00 | 0.00 | 0.00 | 88 | 1021.1 |
| 20260509113256 | 46 | 211 | 3.0 | 5.0 | 0.00 | 0.00 | 0.00 | 88 | 1021.2 |
| 20260509112753 | 46 | 185 | 2.0 | 3.0 | 0.00 | 0.00 | 0.00 | 87 | 1021.0 |
| 20260509112250 | 46 | 183 | 2.0 | 3.0 | 0.00 | 0.00 | 0.00 | 86 | 1021.3 |
| 20260509111747 | 46 | 177 | 5.0 | 6.0 | 0.00 | 0.00 | 0.00 | 86 | 1021.1 |
| 20260509111244 | 46 | 185 | 3.0 | 3.0 | 0.00 | 0.00 | 0.00 | 85 | 1021.0 |
| 20260509110741 | 46 | 196 | 2.0 | 2.0 | 0.00 | 0.00 | 0.00 | 85 | 1020.9 |
| 20260509110238 | 46 | 178 | 2.0 | 2.0 | 0.00 | 0.00 | 0.00 | 85 | 1020.7 |
| 20260509105736 | 46 | 180 | 3.0 | 3.0 | 0.00 | 0.00 | 0.00 | 85 | 1021.1 |
| 20260509105233 | 46 | 188 | 3.0 | 3.0 | 0.00 | 0.00 | 0.00 | 85 | 1021.0 |
| 20260509104730 | 45 | 187 | 5.0 | 6.0 | 0.00 | 0.00 | 0.00 | 85 | 1020.9 |
| 20260509104227 | 45 | 187 | 3.0 | 3.0 | 0.00 | 0.00 | 0.00 | 85 | 1021.0 |
| 20260509103725 | 45 | 195 | 3.0 | 3.0 | 0.00 | 0.00 | 0.00 | 85 | 1021.2 |